Location: Writing-on-Stone Provincial Park
(49.0825°N, 111.6163°W)
Time: 11:41:23
(UTC-06:00)

Amateur Radio Satellites - All Passes

Search period start: 25 June 2016 11:11
Search period end: 26 June 2016 11:11
Location: Writing-on-Stone Provincial Park, 49.0825°N, 111.6163°W

Satellite Date Start Highest point End Downlink Frequencies (MHz)
Time Altitude Azimuth
CUBEBUG 2 25 Jun 11:14:47 11:18:54 36° 293° (WNW) 11:23:07 437.445
CANX-2 25 Jun 11:15:01 11:17:10 14° 302° (WNW) 11:19:20 2200.000
ANTELSAT 25 Jun 11:24:32 11:28:38 43° 262° (W) 11:32:50 437.575/2403.000
COMPASS 1 25 Jun 11:30:45 11:33:34 18° 299° (WNW) 11:36:23 437.405
BEESAT 2 25 Jun 11:32:13 11:35:19 21° 33° (NNE) 11:38:25 435.950
RS-15 25 Jun 11:34:07 11:41:57 22° 97° (E) 11:50:00 29.354- 29.394
CUTE 1.7 + AOD 2 25 Jun 11:37:27 11:37:44 10° 305° (NW) 11:38:00 437.475
DELFI C3 25 Jun 11:42:01 11:46:00 64° 287° (WNW) 11:49:57 145.870
BUGSAT 1 25 Jun 11:43:57 11:47:20 27° 65° (ENE) 11:50:44 437.445
NANOSAT C BR1 25 Jun 11:44:46 11:48:53 59° 72° (ENE) 11:53:01 145.865
QB50P1 25 Jun 11:45:34 11:49:42 63° 73° (ENE) 11:53:52 145.935-145.965
M-CUBED/EXP-1 PRIME 25 Jun 11:47:20 11:50:22 25° 300° (WNW) 11:53:35 437.505
SEEDS 25 Jun 11:47:54 11:48:31 10° 305° (NW) 11:49:08 437.485
POPSAT HIP 1 25 Jun 11:48:24 11:52:33 66° 73° (ENE) 11:56:44 437.405
YUBILEINY 25 Jun 11:51:30 11:54:52 13° 68° (ENE) 11:58:15 435.215
HO-68 25 Jun 11:52:33 11:58:00 24° 310° (NW) 12:03:26 435.675
Cosmos 2491 25 Jun 11:53:19 12:01:29 42° 67° (ENE) 12:09:35 435.465 / 435.565
PCSat 25 Jun 11:57:17 12:02:39 56° 49° (NE) 12:07:59 145.827
ZACube-1 25 Jun 11:57:37 12:01:28 29° 295° (WNW) 12:05:22 437.345
PHONESAT 2.4 25 Jun 11:57:42 11:59:45 16° 185° (S) 12:01:47 2401.200-2431.200
QB50P2 25 Jun 11:59:43 12:03:55 89° 255° (WSW) 12:08:10 145.880/145.840
POLYITAN 1 25 Jun 12:02:21 12:06:32 87° 256° (WSW) 12:10:47 437.675
HUMSAT D 25 Jun 12:06:32 12:10:52 76° 286° (WNW) 12:15:10 437.325/437.525
DUCHIFAT 1 25 Jun 12:07:07 12:11:16 87° 249° (WSW) 12:15:30 145.980
JAS-2 25 Jun 12:07:28 12:14:26 41° 63° (ENE) 12:20:52 435.910
UWE-3 25 Jun 12:10:58 12:13:54 17° 300° (WNW) 12:16:50 435.000/436.395/437.385
DANDE 25 Jun 12:14:00 12:18:35 16° 309° (NW) 12:22:57 436.750
VELOX 1 25 Jun 12:14:07 12:17:02 17° 91° (E) 12:19:57 145.980
Oscar 11 25 Jun 12:15:24 12:18:29 19° 299° (WNW) 12:21:33 145.826/435.025
CUBEBUG 1 25 Jun 12:15:38 12:18:45 19° 91° (E) 12:21:51 437.445
FUNcube-1 25 Jun 12:17:39 12:21:00 21° 298° (WNW) 12:24:23 145.935
TIGRISAT 25 Jun 12:19:30 12:21:54 15° 272° (W) 12:24:19 435.000
ISS 25 Jun 12:20:50 12:24:07 84° 158° (SSE) 12:27:23 145.825
O/OREOS (USA 219) 25 Jun 12:22:47 12:26:09 20° 47° (NE) 12:29:30 437.305
UNISAT 6 25 Jun 12:23:56 12:25:51 13° 273° (W) 12:27:48 437.425
ESTCUBE 1 25 Jun 12:34:24 12:38:42 41° 98° (E) 12:42:57 437.505/2401.250
BEESAT 3 25 Jun 12:39:00 12:42:59 85° 230° (SW) 12:46:56 437.485
AISAT 25 Jun 12:53:38 12:57:49 42° 99° (E) 13:01:59 437.250
Gurwin Techsat 1B 25 Jun 13:03:25 13:07:06 19° 56° (ENE) 13:10:46 435.225
BEESAT 2 25 Jun 13:09:36 13:13:37 75° 234° (SW) 13:17:35 435.950
UKube-1 25 Jun 13:13:38 13:17:43 41° 98° (E) 13:21:48 .
Oscar 19 25 Jun 13:13:53 13:18:44 43° 67° (ENE) 13:23:34 437.125/150
50 SAT 25 Jun 13:19:01 13:22:45 87° 96° (E) 13:26:27 437.505
BUGSAT 1 25 Jun 13:19:01 13:22:38 32° 263° (W) 13:26:16 437.445
Cosmos 2504 25 Jun 13:19:51 13:23:48 14° 69° (ENE) 13:27:52 435.465 / 435.565
AIST 2 25 Jun 13:21:35 13:24:41 20° 31° (NNE) 13:27:46 435.215
SPROUT 25 Jun 13:22:12 13:26:12 37° 97° (E) 13:30:10 437.525
NANOSAT C BR1 25 Jun 13:22:28 13:25:01 16° 270° (W) 13:27:35 145.865
TISAT 1 25 Jun 13:22:43 13:23:30 10° 87° (E) 13:24:17 437.305
QB50P1 25 Jun 13:23:32 13:25:55 15° 271° (W) 13:28:20 145.935-145.965
DX 1 25 Jun 13:26:33 13:30:53 68° 103° (ESE) 13:35:12 434.975-435.025
POPSAT HIP 1 25 Jun 13:26:34 13:28:49 14° 271° (W) 13:31:03 437.405
ITAMSAT 1 25 Jun 13:31:21 13:33:55 14° 52° (NE) 13:36:31 435.822/435.867
QB50P2 25 Jun 13:40:10 13:40:23 10° 274° (W) 13:40:38 145.880/145.840
RS-15 25 Jun 13:40:45 13:52:09 74° 122° (ESE) 14:04:14 29.354- 29.394
PCSat 25 Jun 13:41:09 13:45:46 29° 249° (WSW) 13:50:22 145.827
YUBILEINY 25 Jun 13:41:11 13:49:38 59° 91° (E) 13:58:11 435.215
HUMSAT D 25 Jun 13:44:30 13:45:44 11° 304° (NW) 13:46:58 437.325/437.525
VELOX 1 25 Jun 13:49:34 13:53:54 58° 289° (WNW) 13:58:12 145.980
Cosmos 2491 25 Jun 13:50:14 13:58:37 54° 270° (W) 14:06:58 435.465 / 435.565
CUBEBUG 1 25 Jun 13:51:08 13:55:20 50° 290° (WNW) 13:59:30 437.445
JAS-2 25 Jun 13:51:52 13:59:20 52° 261° (W) 14:06:14 435.910
ISS 25 Jun 13:57:30 14:00:43 51° 359° (N) 14:03:56 145.825
AO-7 25 Jun 13:58:33 14:04:56 25° 45° (NE) 14:11:19 29.400- 29.500
O/OREOS (USA 219) 25 Jun 14:01:32 14:06:00 65° 247° (WSW) 14:10:25 437.305
ESTCUBE 1 25 Jun 14:11:35 14:15:20 26° 297° (WNW) 14:19:04 437.505/2401.250
BEESAT 3 25 Jun 14:19:04 14:19:59 11° 251° (WSW) 14:20:55 437.485
AISAT 25 Jun 14:30:32 14:34:06 25° 297° (WNW) 14:37:39 437.250
Gurwin Techsat 1B 25 Jun 14:41:07 14:46:27 80° 255° (WSW) 14:51:49 435.225
UKube-1 25 Jun 14:50:05 14:53:36 25° 297° (WNW) 14:57:05 .
Oscar 19 25 Jun 14:53:40 14:58:11 30° 265° (W) 15:02:43 437.125/150
50 SAT 25 Jun 14:55:08 14:55:49 10° 303° (WNW) 14:56:32 437.505
TISAT 1 25 Jun 14:55:34 14:59:47 89° 296° (WNW) 15:04:00 437.305
SPROUT 25 Jun 14:58:27 15:02:01 26° 295° (WNW) 15:05:35 437.525
AIST 2 25 Jun 14:59:33 15:03:45 90° 170° (S) 15:07:54 435.215
DX 1 25 Jun 15:03:52 15:06:36 17° 301° (WNW) 15:09:20 434.975-435.025
Cosmos 2504 25 Jun 15:07:19 15:15:16 64° 92° (E) 15:23:49 435.465 / 435.565
ITAMSAT 1 25 Jun 15:07:20 15:12:30 72° 72° (ENE) 15:17:45 435.822/435.867
SWISSCUBE 25 Jun 15:17:31 15:21:56 35° 97° (E) 15:26:20 437.505
ISS 25 Jun 15:34:05 15:37:22 83° 19° (NNE) 15:40:39 145.825
YUBILEINY 25 Jun 15:38:54 15:46:53 39° 294° (WNW) 15:54:58 435.215
ITUPSAT 1 25 Jun 15:41:45 15:46:28 52° 100° (E) 15:51:10 437.325
BEESAT 25 Jun 15:43:03 15:47:48 55° 101° (E) 15:52:29 436.000
JAS-2 25 Jun 15:44:56 15:45:47 10° 280° (W) 15:46:36 435.910
AO-7 25 Jun 15:48:15 15:56:35 81° 67° (ENE) 16:04:59 29.400- 29.500
Cosmos 2491 25 Jun 15:51:01 15:53:17 11° 293° (WNW) 15:55:35 435.465 / 435.565
RS-15 25 Jun 15:54:15 16:05:34 51° 330° (NNW) 16:17:28 29.354- 29.394
HORYU 2 25 Jun 16:19:30 16:23:08 25° 63° (ENE) 16:26:47 437.375
Gurwin Techsat 1B 25 Jun 16:25:02 16:27:16 13° 275° (W) 16:29:30 435.225
NOAA 15 25 Jun 16:27:21 16:28:38 11° 49° (NE) 16:29:54 137.62
TISAT 1 25 Jun 16:33:06 16:34:48 12° 303° (WNW) 16:36:30 437.305
STARS 25 Jun 16:34:25 16:36:33 13° 89° (E) 16:38:41 437.465
AIST 2 25 Jun 16:39:51 16:41:35 12° 250° (WSW) 16:43:18 435.215
ITAMSAT 1 25 Jun 16:49:00 16:52:33 18° 271° (W) 16:56:07 435.822/435.867
Cubesat XI-IV 25 Jun 16:50:55 16:53:09 13° 50° (NE) 16:55:23 437.490
MOZHAYETS 4 25 Jun 16:53:00 16:57:17 35° 96° (E) 17:01:32
SWISSCUBE 25 Jun 16:55:24 16:59:42 33° 295° (WNW) 17:03:58 437.505
BRITE-PL 25 Jun 16:55:26 16:57:48 14° 57° (ENE) 17:00:05 437.365/2234.400
Cosmos 2504 25 Jun 17:01:54 17:09:16 35° 296° (WNW) 17:17:08 435.465 / 435.565
ISS 25 Jun 17:10:49 17:13:34 24° 217° (SW) 17:16:18 145.825
ITUPSAT 1 25 Jun 17:20:10 17:24:01 24° 299° (WNW) 17:27:49 437.325
BEESAT 25 Jun 17:21:30 17:25:15 23° 300° (WNW) 17:28:58 436.000
CUTE-I 25 Jun 17:24:09 17:28:10 22° 58° (ENE) 17:32:12 437.470
KKS-1 25 Jun 17:27:32 17:32:00 79° 102° (ESE) 17:36:27 437.445
SO-50 25 Jun 17:38:30 17:43:15 52° 123° (ESE) 17:47:59 436.795
AO-7 25 Jun 17:43:28 17:50:14 27° 268° (W) 17:57:05 29.400- 29.500
LilacSat-2 25 Jun 17:43:35 17:46:15 18° 63° (ENE) 17:48:55 437.200
GOMX 1 25 Jun 17:45:54 17:48:45 17° 61° (ENE) 17:51:30 467.674
GONETS M04 25 Jun 17:46:26 17:51:24 17° 72° (ENE) 17:56:21
NOAA 18 25 Jun 17:54:12 17:59:17 41° 64° (ENE) 18:04:25 137.9125
HORYU 2 25 Jun 17:55:18 17:59:30 42° 261° (W) 18:03:45 437.375
NOAA 15 25 Jun 18:02:10 18:07:18 54° 69° (ENE) 18:12:29 137.62
Cosmos 2499 25 Jun 18:06:06 18:10:11 14° 69° (ENE) 18:14:20 435.465 / 435.565
STARS 25 Jun 18:09:03 18:13:27 77° 286° (WNW) 18:17:51 437.465
RS-15 25 Jun 18:10:31 18:21:32 38° 4° (N) 18:32:49 29.354- 29.394
CUBESAT XI-V 25 Jun 18:11:27 18:15:30 29° 94° (E) 18:19:29 437.345
AIST 1 25 Jun 18:12:46 18:17:03 61° 96° (E) 18:21:19
Cubesat XI-IV 25 Jun 18:26:57 18:32:13 63° 70° (ENE) 18:37:33 437.490
MOZHAYETS 4 25 Jun 18:30:17 18:34:24 31° 295° (WNW) 18:38:29
BRITE-PL 25 Jun 18:30:34 18:35:41 82° 75° (ENE) 18:40:25 437.365/2234.400
HO-68 25 Jun 18:50:40 18:56:23 27° 52° (NE) 19:02:07 435.675
CANX-2 25 Jun 19:00:49 19:02:57 14° 58° (ENE) 19:05:04 2200.000
DOVE 4 25 Jun 19:01:41 19:05:40 37° 69° (ENE) 19:09:32 437.250
CUTE-I 25 Jun 19:02:24 19:07:44 69° 257° (WSW) 19:13:07 437.470
KKS-1 25 Jun 19:05:28 19:08:01 15° 303° (WNW) 19:10:34 437.445
LilacSat-2 25 Jun 19:16:39 19:20:16 43° 261° (W) 19:23:56 437.200
SO-50 25 Jun 19:19:29 19:23:57 34° 322° (NW) 19:28:23 436.795
CUTE 1.7 + AOD 2 25 Jun 19:20:33 19:23:27 18° 61° (ENE) 19:26:23 437.475
DANDE 25 Jun 19:20:48 19:26:09 32° 63° (ENE) 19:30:16 436.750
GOMX 1 25 Jun 19:21:48 19:26:27 69° 258° (WSW) 19:30:50 467.674
CUSAT 1 25 Jun 19:29:38 19:34:07 75° 76° (ENE) 19:37:30 437.405
SEEDS 25 Jun 19:30:50 19:33:34 17° 60° (ENE) 19:36:20 437.485
NOAA 18 25 Jun 19:35:04 19:40:02 35° 264° (W) 19:45:03 137.9125
GONETS M04 25 Jun 19:37:57 19:46:36 72° 95° (E) 19:55:15
NOAA 15 25 Jun 19:43:06 19:47:24 25° 267° (W) 19:51:43 137.62
STARS 25 Jun 19:47:36 19:49:04 12° 305° (NW) 19:50:32 437.465
CUBESAT XI-V 25 Jun 19:48:41 19:52:59 38° 293° (WNW) 19:57:13 437.345
STRAND 1 25 Jun 19:49:20 19:53:20 22° 91° (E) 19:57:19 437.568
AIST 1 25 Jun 19:52:20 19:55:05 16° 295° (WNW) 19:57:50
Cosmos 2499 25 Jun 19:53:15 20:01:23 63° 92° (E) 20:10:02 435.465 / 435.565
UWE-3 25 Jun 20:00:55 20:02:42 12° 56° (ENE) 20:04:30 435.000/436.395/437.385
Oscar 11 25 Jun 20:04:43 20:05:42 11° 55° (NE) 20:06:42 145.826/435.025
Cubesat XI-IV 25 Jun 20:08:42 20:12:45 22° 269° (W) 20:16:50 437.490
BRITE-PL 25 Jun 20:11:55 20:14:40 15° 271° (W) 20:17:19 437.365/2234.400
AAUSAT CUBESAT 2 25 Jun 20:18:25 20:21:59 27° 66° (ENE) 20:25:34 437.432
CINEMA 3 25 Jun 20:21:06 20:25:14 71° 74° (ENE) 20:29:24 145.822/145.860
RS-15 25 Jun 20:25:06 20:37:12 58° 36° (NE) 20:49:20 29.354- 29.394
AUBIESAT-1 25 Jun 20:27:21 20:30:11 27° 61° (ENE) 20:33:04 437.475
CANX-2 25 Jun 20:33:53 20:38:11 84° 259° (W) 20:42:32 2200.000
HO-68 25 Jun 20:36:14 20:43:24 81° 254° (WSW) 20:50:39 435.675
DOVE 4 25 Jun 20:39:55 20:43:30 25° 266° (W) 20:47:00 437.250
CUBEBUG 2 25 Jun 20:40:26 20:44:16 37° 68° (ENE) 20:48:13 437.445
CUTE-I 25 Jun 20:47:40 20:48:48 11° 276° (W) 20:49:54 437.470
COMPASS 1 25 Jun 20:48:30 20:52:40 66° 74° (ENE) 20:56:53 437.405
CUTE 1.7 + AOD 2 25 Jun 20:54:40 20:58:54 59° 260° (W) 21:03:10 437.475
DELFI C3 25 Jun 20:58:37 21:01:01 15° 60° (ENE) 21:03:25 145.870
SO-50 25 Jun 21:03:09 21:05:50 15° 346° (NNW) 21:08:30 436.795
M-CUBED/EXP-1 PRIME 25 Jun 21:03:22 21:06:38 88° 249° (WSW) 21:09:57 437.505
DANDE 25 Jun 21:03:50 21:09:02 35° 272° (W) 21:13:02 436.750
SEEDS 25 Jun 21:04:37 21:08:50 63° 260° (W) 21:13:05 437.485
PRISM 25 Jun 21:06:10 21:08:56 17° 91° (E) 21:11:41 437.425
ZACube-1 25 Jun 21:20:47 21:24:47 46° 70° (ENE) 21:28:55 437.345
STRAND 1 25 Jun 21:27:49 21:32:54 58° 290° (WNW) 21:37:56 437.568
HUMSAT D 25 Jun 21:27:51 21:30:27 16° 59° (ENE) 21:33:03 437.325/437.525
UWE-3 25 Jun 21:34:18 21:38:29 89° 281° (WNW) 21:42:48 435.000/436.395/437.385
Oscar 11 25 Jun 21:36:44 21:41:03 72° 73° (ENE) 21:45:25 145.826/435.025
GONETS M04 25 Jun 21:36:45 21:44:15 31° 298° (WNW) 21:51:48
FUNcube-1 25 Jun 21:40:00 21:44:09 67° 73° (ENE) 21:48:26 145.935
Cosmos 2499 25 Jun 21:47:28 21:55:05 37° 296° (WNW) 22:03:07 435.465 / 435.565
AAUSAT CUBESAT 2 25 Jun 21:53:34 21:57:23 34° 264° (W) 22:01:15 437.432
CINEMA 3 25 Jun 22:01:07 22:02:56 13° 272° (W) 22:04:45 145.822/145.860
AUBIESAT-1 25 Jun 22:02:08 22:04:45 21° 259° (W) 22:07:23 437.475
CUBEBUG 2 25 Jun 22:17:39 22:21:03 24° 267° (W) 22:24:31 437.445
COMPASS 1 25 Jun 22:26:21 22:28:42 14° 272° (W) 22:31:03 437.405
HO-68 25 Jun 22:27:42 22:32:15 18° 274° (W) 22:36:50 435.675
TIGRISAT 25 Jun 22:29:45 22:31:16 11° 86° (E) 22:32:46 435.000
DELFI C3 25 Jun 22:31:24 22:35:25 64° 258° (WSW) 22:39:27 145.870
UNISAT 6 25 Jun 22:33:11 22:35:24 13° 87° (E) 22:37:38 437.425
RS-15 25 Jun 22:38:06 22:50:07 63° 243° (WSW) 23:02:06 29.354- 29.394
PRISM 25 Jun 22:40:34 22:44:33 51° 290° (WNW) 22:48:31 437.425
SO-50 25 Jun 22:45:51 22:48:18 14° 11° (N) 22:50:44 436.795
DX 1 25 Jun 22:52:12 22:54:28 14° 57° (ENE) 22:56:44 434.975-435.025
ZACube-1 25 Jun 22:58:13 23:01:21 20° 269° (W) 23:04:33 437.345
HUMSAT D 25 Jun 23:01:27 23:05:35 65° 258° (WSW) 23:09:49 437.325/437.525
AO-85 25 Jun 23:08:38 23:13:51 50° 121° (ESE) 23:18:54 145.980
STRAND 1 25 Jun 23:09:33 23:11:03 11° 310° (NW) 23:12:32 437.568
ANTELSAT 25 Jun 23:11:45 23:15:49 30° 95° (E) 23:19:54 437.575/2403.000
VELOX 1 25 Jun 23:15:02 23:18:41 26° 64° (ENE) 23:22:21 145.980
CUBEBUG 1 25 Jun 23:15:15 23:18:56 27° 65° (ENE) 23:22:36 437.445
UWE-3 25 Jun 23:15:22 23:15:40 10° 275° (W) 23:15:59 435.000/436.395/437.385
Oscar 11 25 Jun 23:15:27 23:17:42 14° 272° (W) 23:19:58 145.826/435.025
FUNcube-1 25 Jun 23:18:42 23:20:56 14° 272° (W) 23:23:12 145.935
ESTCUBE 1 25 Jun 23:37:31 23:42:00 62° 72° (ENE) 23:46:31 437.505/2401.250
QB50P2 25 Jun 23:42:35 23:44:04 12° 87° (E) 23:45:33 145.880/145.840
POLYITAN 1 25 Jun 23:45:05 23:46:42 12° 87° (E) 23:48:18 437.675
YUBILEINY 25 Jun 23:46:02 23:54:06 37° 65° (ENE) 00:02:07 435.215
DUCHIFAT 1 25 Jun 23:49:13 23:50:37 11° 87° (E) 23:52:01 145.980
Cosmos 2499 25 Jun 23:51:11 23:51:36 10° 323° (NW) 23:52:01 435.465 / 435.565
AISAT 25 Jun 23:54:38 23:58:59 63° 72° (ENE) 00:03:21 437.250
50 SAT 26 Jun 00:00:24 00:04:06 73° 75° (ENE) 00:07:51 437.505
TIGRISAT 26 Jun 00:04:00 00:08:37 86° 103° (ESE) 00:13:18 435.000
UNISAT 6 26 Jun 00:08:05 00:12:42 84° 285° (WNW) 00:17:24 437.425
UKube-1 26 Jun 00:11:45 00:16:00 59° 71° (ENE) 00:20:16 .
TISAT 1 26 Jun 00:17:31 00:19:53 15° 59° (ENE) 00:22:16 437.305
SPROUT 26 Jun 00:19:27 00:23:31 47° 70° (ENE) 00:27:37 437.525
DX 1 26 Jun 00:25:42 00:30:03 84° 252° (WSW) 00:34:27 434.975-435.025
SO-50 26 Jun 00:26:05 00:30:18 30° 35° (NE) 00:34:22 436.795
ANTELSAT 26 Jun 00:48:20 00:52:34 37° 293° (WNW) 00:56:51 437.575/2403.000
AO-85 26 Jun 00:49:32 00:54:32 38° 321° (NW) 00:59:19 145.980
VELOX 1 26 Jun 00:50:51 00:55:00 40° 262° (W) 00:59:11 145.980
CUBEBUG 1 26 Jun 00:51:03 00:55:06 37° 263° (W) 00:59:10 437.445
RS-15 26 Jun 00:53:06 00:59:57 17° 266° (W) 01:06:47 29.354- 29.394
SWISSCUBE 26 Jun 00:54:06 00:55:30 11° 52° (NE) 00:56:54 437.505
Cosmos 2504 26 Jun 00:54:46 01:02:41 34° 63° (ENE) 01:10:25 435.465 / 435.565
BUGSAT 1 26 Jun 00:56:25 00:59:50 25° 95° (E) 01:03:16 437.445
JAS-2 26 Jun 00:58:54 01:02:50 18° 86° (E) 01:06:32 435.910
Cosmos 2491 26 Jun 01:00:03 01:07:59 40° 85° (E) 01:15:53 435.465 / 435.565
NANOSAT C BR1 26 Jun 01:00:33 01:04:46 62° 102° (ESE) 01:08:59 145.865
QB50P1 26 Jun 01:01:44 01:05:58 67° 101° (ESE) 01:10:13 145.935-145.965
POPSAT HIP 1 26 Jun 01:04:38 01:08:54 71° 102° (ESE) 01:13:09 437.405
QB50P2 26 Jun 01:16:11 01:20:27 83° 287° (WNW) 01:24:44 145.880/145.840
ESTCUBE 1 26 Jun 01:16:13 01:19:14 17° 270° (W) 01:22:15 437.505/2401.250
ITUPSAT 1 26 Jun 01:17:05 01:19:54 16° 56° (NE) 01:22:45 437.325
BEESAT 26 Jun 01:18:00 01:20:53 16° 56° (ENE) 01:23:48 436.000
POLYITAN 1 26 Jun 01:18:47 01:23:05 82° 284° (WNW) 01:27:22 437.675
DUCHIFAT 1 26 Jun 01:22:40 01:26:54 83° 284° (WNW) 01:31:08 145.980
Oscar 19 26 Jun 01:24:35 01:24:54 10° 84° (E) 01:25:13 437.125/150
AISAT 26 Jun 01:33:07 01:35:54 16° 270° (W) 01:38:40 437.250
50 SAT 26 Jun 01:37:27 01:38:17 11° 272° (W) 01:39:06 437.505
TIGRISAT 26 Jun 01:42:08 01:44:43 15° 302° (WNW) 01:47:18 435.000
YUBILEINY 26 Jun 01:42:46 01:51:25 62° 268° (W) 02:00:04 435.215
UNISAT 6 26 Jun 01:46:33 01:48:44 13° 304° (WNW) 01:50:56 437.425
UKube-1 26 Jun 01:49:38 01:52:26 17° 269° (W) 01:55:14 .
TISAT 1 26 Jun 01:50:54 01:55:02 71° 256° (WSW) 01:59:13 437.305
SPROUT 26 Jun 01:56:35 01:59:44 20° 268° (W) 02:02:54 437.525
SO-50 26 Jun 02:06:28 02:11:06 58° 237° (WSW) 02:15:34 436.795
SWISSCUBE 26 Jun 02:27:39 02:32:23 64° 71° (ENE) 02:37:10 437.505
BUGSAT 1 26 Jun 02:31:36 02:35:17 34° 293° (WNW) 02:39:00 437.445
AO-85 26 Jun 02:33:13 02:36:22 16° 343° (NNW) 02:39:23 145.980
NANOSAT C BR1 26 Jun 02:37:20 02:40:05 17° 300° (WNW) 02:42:50 145.865
QB50P1 26 Jun 02:38:41 02:41:17 16° 301° (WNW) 02:43:55 145.935-145.965
POPSAT HIP 1 26 Jun 02:41:41 02:44:11 15° 301° (WNW) 02:46:42 437.405
JAS-2 26 Jun 02:42:49 02:48:47 74° 288° (WNW) 02:54:08 435.910
PCSat 26 Jun 02:44:29 02:48:22 20° 107° (ESE) 02:52:15 145.827
Cosmos 2504 26 Jun 02:47:58 02:56:50 71° 266° (W) 03:05:27 435.465 / 435.565
ITUPSAT 1 26 Jun 02:52:16 02:57:06 87° 256° (WSW) 03:01:58 437.325
BEESAT 26 Jun 02:53:15 02:58:03 84° 257° (WSW) 03:02:54 436.000
Gurwin Techsat 1B 26 Jun 02:53:27 02:58:07 30° 94° (E) 03:02:46 435.225
QB50P2 26 Jun 02:54:03 02:55:34 12° 304° (NW) 02:57:07 145.880/145.840
KKS-1 26 Jun 02:54:51 02:57:41 17° 58° (ENE) 03:00:30 437.445
Cosmos 2491 26 Jun 02:56:00 03:04:34 55° 287° (WNW) 03:13:10 435.465 / 435.565
POLYITAN 1 26 Jun 02:56:43 02:58:11 12° 304° (NW) 02:59:40 437.675
Oscar 19 26 Jun 03:00:02 03:05:11 70° 103° (ESE) 03:10:17 437.125/150
DUCHIFAT 1 26 Jun 03:00:26 03:01:55 12° 304° (NW) 03:03:24 145.980
ITAMSAT 1 26 Jun 03:16:56 03:20:35 19° 90° (E) 03:24:12 435.822/435.867
STARS 26 Jun 03:34:31 03:37:45 21° 61° (ENE) 03:41:01 437.465
YUBILEINY 26 Jun 03:42:21 03:46:18 14° 291° (WNW) 03:50:15 435.215
AO-7 26 Jun 03:46:26 03:52:14 20° 87° (E) 03:57:59 29.400- 29.500
GONETS M04 26 Jun 03:48:37 03:51:37 12° 42° (NE) 03:54:38
MOZHAYETS 4 26 Jun 03:58:29 04:02:59 53° 70° (ENE) 04:07:31
SWISSCUBE 26 Jun 04:07:21 04:10:38 18° 270° (W) 04:13:56 437.505
BEESAT 3 26 Jun 04:10:29 04:14:12 42° 121° (ESE) 04:17:57 437.485
AIST 1 26 Jun 04:15:54 04:19:22 23° 69° (ENE) 04:22:48
AO-85 26 Jun 04:16:26 04:18:51 13° 8° (N) 04:21:12 145.980
O/OREOS (USA 219) 26 Jun 04:17:33 04:22:00 66° 113° (ESE) 04:26:29 437.305
PCSat 26 Jun 04:25:45 04:31:11 76° 307° (NW) 04:36:39 145.827
KKS-1 26 Jun 04:29:21 04:33:46 69° 257° (WSW) 04:38:12 437.445
JAS-2 26 Jun 04:29:28 04:32:44 15° 312° (NW) 04:35:52 435.910
Gurwin Techsat 1B 26 Jun 04:33:11 04:38:14 45° 293° (WNW) 04:43:17 435.225
ITUPSAT 1 26 Jun 04:33:46 04:35:40 12° 274° (W) 04:37:35 437.325
BEESAT 26 Jun 04:34:58 04:36:36 12° 274° (W) 04:38:15 436.000
Oscar 19 26 Jun 04:40:18 04:44:01 21° 302° (WNW) 04:47:43 437.125/150
BEESAT 2 26 Jun 04:42:26 04:46:16 50° 123° (ESE) 04:50:10 435.950
Cosmos 2504 26 Jun 04:43:22 04:48:34 17° 288° (WNW) 04:53:44 435.465 / 435.565
ITAMSAT 1 26 Jun 04:55:21 05:00:36 71° 289° (WNW) 05:05:48 435.822/435.867
Cosmos 2491 26 Jun 04:59:17 05:03:52 15° 314° (NW) 05:08:28 435.465 / 435.565
STARS 26 Jun 05:09:33 05:13:48 51° 259° (W) 05:18:05 437.465
CUBESAT XI-V 26 Jun 05:18:20 05:22:47 44° 69° (ENE) 05:27:16 437.345
MOZHAYETS 4 26 Jun 05:36:59 05:40:28 21° 269° (W) 05:43:58
AO-7 26 Jun 05:37:51 05:46:18 81° 109° (ESE) 05:54:42 29.400- 29.500
Cosmos 2499 26 Jun 05:39:39 05:47:26 32° 62° (ENE) 05:54:55 435.465 / 435.565
HORYU 2 26 Jun 05:42:05 05:45:55 27° 95° (E) 05:49:44 437.375
GONETS M04 26 Jun 05:43:05 05:51:22 45° 69° (ENE) 05:59:39
BEESAT 3 26 Jun 05:48:33 05:52:01 29° 321° (NW) 05:55:31 437.485
AIST 1 26 Jun 05:53:09 05:57:06 38° 268° (W) 06:01:02
AO-85 26 Jun 05:56:54 06:00:59 27° 32° (NNE) 06:04:46 145.980
O/OREOS (USA 219) 26 Jun 05:58:31 06:01:52 20° 313° (NW) 06:05:13 437.305
PCSat 26 Jun 06:11:21 06:15:29 22° 329° (NNW) 06:19:38 145.827
NOAA 18 26 Jun 06:14:07 06:15:57 12° 85° (E) 06:17:45 137.9125
NOAA 15 26 Jun 06:14:36 06:17:22 14° 87° (E) 06:20:08 137.62
BEESAT 2 26 Jun 06:20:57 06:24:21 26° 323° (NW) 06:27:46 435.950
BRITE-PL 26 Jun 06:32:22 06:34:57 16° 89° (E) 06:37:31 437.365/2234.400
ITAMSAT 1 26 Jun 06:36:39 06:39:10 14° 308° (NW) 06:41:42 435.822/435.867
AIST 2 26 Jun 06:38:41 06:42:39 48° 122° (ESE) 06:46:40 435.215
Cubesat XI-IV 26 Jun 06:40:56 06:44:37 18° 89° (E) 06:48:17 437.490
LilacSat-2 26 Jun 06:46:45 06:49:08 15° 90° (E) 06:51:30 437.200
CUSAT 1 26 Jun 06:54:54 06:58:53 15° 82° (E) 07:02:37 437.405
CUBESAT XI-V 26 Jun 06:56:29 07:00:22 25° 267° (W) 07:04:16 437.345
STRAND 1 26 Jun 07:08:50 07:13:45 47° 68° (ENE) 07:18:42 437.568
CUTE-I 26 Jun 07:15:25 07:20:20 35° 96° (E) 07:25:13 437.470
HORYU 2 26 Jun 07:18:23 07:22:35 39° 293° (WNW) 07:26:45 437.375
GOMX 1 26 Jun 07:19:35 07:22:53 22° 93° (E) 07:26:13 467.674
BEESAT 3 26 Jun 07:30:18 07:30:58 10° 344° (NNW) 07:31:37 437.485
AO-7 26 Jun 07:31:19 07:38:21 31° 310° (NW) 07:45:22 29.400- 29.500
Cosmos 2499 26 Jun 07:32:34 07:41:26 73° 266° (W) 07:49:50 435.465 / 435.565
AO-85 26 Jun 07:37:16 07:41:54 66° 235° (SW) 07:46:07 145.980
GONETS M04 26 Jun 07:40:05 07:48:20 49° 271° (W) 07:56:35
NOAA 18 26 Jun 07:52:02 07:57:36 72° 104° (ESE) 08:03:08 137.9125
NOAA 15 26 Jun 07:52:37 07:57:55 90° 293° (WNW) 08:03:09 137.62
PCSat 26 Jun 07:59:10 08:01:04 12° 355° (N) 08:02:57 145.827
PRISM 26 Jun 07:59:15 08:02:33 23° 63° (ENE) 08:05:52 437.425
HO-68 26 Jun 08:01:07 08:05:15 16° 85° (E) 08:09:21 435.675
BRITE-PL 26 Jun 08:09:46 08:13:54 54° 288° (WNW) 08:17:56 437.365/2234.400
CINEMA 3 26 Jun 08:12:34 08:14:44 13° 88° (E) 08:16:55 145.822/145.860
CANX-2 26 Jun 08:16:25 08:18:33 13° 88° (E) 08:20:39 2200.000
AIST 2 26 Jun 08:17:44 08:21:20 28° 323° (NW) 08:24:59 435.215
Cubesat XI-IV 26 Jun 08:19:53 08:25:17 74° 288° (WNW) 08:30:39 437.490
LilacSat-2 26 Jun 08:19:58 08:23:45 52° 288° (WNW) 08:27:31 437.200
DANDE 26 Jun 08:29:46 08:37:25 41° 90° (E) 08:44:34 436.750
CUSAT 1 26 Jun 08:32:25 08:40:11 69° 98° (E) 08:46:43 437.405
DOVE 4 26 Jun 08:32:57 08:37:09 58° 101° (E) 08:41:31 437.250
CUTE 1.7 + AOD 2 26 Jun 08:36:15 08:39:18 19° 91° (E) 08:42:18 437.475
SEEDS 26 Jun 08:45:23 08:48:10 17° 90° (E) 08:50:56 437.485
STRAND 1 26 Jun 08:48:48 08:53:09 27° 266° (W) 08:57:32 437.568
CUTE-I 26 Jun 08:55:27 09:00:26 40° 295° (WNW) 09:05:25 437.470
GOMX 1 26 Jun 08:57:17 09:01:10 39° 291° (WNW) 09:05:08 467.674
PHONESAT 2.4 26 Jun 09:19:19 09:20:14 11° 162° (SSE) 09:21:11 2401.200-2431.200
UWE-3 26 Jun 09:20:41 09:23:22 15° 89° (E) 09:26:03 435.000/436.395/437.385
Oscar 11 26 Jun 09:22:52 09:23:22 10° 85° (E) 09:23:52 145.826/435.025
FUNcube-1 26 Jun 09:26:15 09:27:16 11° 85° (E) 09:28:18 145.935
AO-7 26 Jun 09:26:22 09:28:29 11° 336° (NNW) 09:30:36 29.400- 29.500
Cosmos 2499 26 Jun 09:27:37 09:32:54 18° 288° (WNW) 09:38:06 435.465 / 435.565
AAUSAT CUBESAT 2 26 Jun 09:31:36 09:35:14 28° 94° (E) 09:38:50 437.432
TIGRISAT 26 Jun 09:32:01 09:34:43 16° 59° (ENE) 09:37:28 435.000
NOAA 18 26 Jun 09:33:33 09:37:45 23° 303° (WNW) 09:41:57 137.9125
NOAA 15 26 Jun 09:33:42 09:36:59 17° 306° (NW) 09:40:16 137.62
PRISM 26 Jun 09:33:43 09:37:40 41° 261° (W) 09:41:37 437.425
UNISAT 6 26 Jun 09:35:52 09:38:52 19° 60° (ENE) 09:41:56 437.425
AUBIESAT-1 26 Jun 09:36:41 09:38:13 12° 96° (E) 09:39:46 437.475
PCSat 26 Jun 09:43:37 09:46:53 16° 22° (NNE) 09:50:09 145.827
HO-68 26 Jun 09:46:57 09:54:12 75° 106° (ESE) 10:01:24 435.675
CINEMA 3 26 Jun 09:47:56 09:52:24 80° 284° (WNW) 09:57:02 145.822/145.860
CANX-2 26 Jun 09:50:37 09:54:56 73° 286° (WNW) 09:59:12 2200.000
ISS 26 Jun 09:54:19 09:55:32 12° 135° (SE) 09:56:44 145.825
AIST 2 26 Jun 10:00:03 10:01:10 11° 346° (NNW) 10:02:16 435.215
Cubesat XI-IV 26 Jun 10:01:37 10:04:29 15° 308° (NW) 10:07:22 437.490
COMPASS 1 26 Jun 10:02:42 10:06:56 72° 103° (ESE) 10:11:06 437.405
CUBEBUG 2 26 Jun 10:02:48 10:07:14 51° 99° (E) 10:11:47 437.445
DELFI C3 26 Jun 10:06:36 10:08:27 13° 88° (E) 10:10:17 145.870
CUTE 1.7 + AOD 2 26 Jun 10:11:15 10:15:27 52° 289° (WNW) 10:19:36 437.475
DOVE 4 26 Jun 10:11:40 10:14:32 18° 298° (WNW) 10:17:27 437.250
DANDE 26 Jun 10:11:50 10:20:07 58° 288° (WNW) 10:27:43 436.750
M-CUBED/EXP-1 PRIME 26 Jun 10:12:08 10:15:33 32° 104° (ESE) 10:19:11 437.505
ANTELSAT 26 Jun 10:14:29 10:18:31 40° 68° (ENE) 10:22:39 437.575/2403.000
CUSAT 1 26 Jun 10:16:07 10:22:38 30° 294° (WNW) 10:28:17 437.405
SEEDS 26 Jun 10:20:03 10:24:14 56° 288° (WNW) 10:28:23 437.485
NANOSAT C BR1 26 Jun 10:24:31 10:25:30 11° 55° (NE) 10:26:31 145.865
QB50P1 26 Jun 10:25:29 10:26:56 12° 56° (NE) 10:28:22 145.935-145.965
POPSAT HIP 1 26 Jun 10:28:13 10:29:52 12° 56° (ENE) 10:31:31 437.405
QB50P2 26 Jun 10:38:46 10:41:21 16° 59° (ENE) 10:43:57 145.880/145.840
ZACube-1 26 Jun 10:40:39 10:45:07 58° 100° (E) 10:49:37 437.345
POLYITAN 1 26 Jun 10:41:20 10:43:58 16° 59° (ENE) 10:46:35 437.675
HUMSAT D 26 Jun 10:41:44 10:44:27 16° 89° (E) 10:47:09 437.325/437.525
DUCHIFAT 1 26 Jun 10:44:40 10:47:10 16° 59° (ENE) 10:49:40 145.980
BEESAT 3 26 Jun 10:46:46 10:49:43 20° 32° (NNE) 10:52:39 437.485
PHONESAT 2.4 26 Jun 10:54:04 10:56:09 17° 179° (S) 10:58:15 2401.200-2431.200
UWE-3 26 Jun 10:55:46 11:00:18 72° 286° (WNW) 11:04:55 435.000/436.395/437.385
Oscar 11 26 Jun 10:55:49 11:00:12 85° 103° (ESE) 11:04:34 145.826/435.025
FUNcube-1 26 Jun 10:59:40 11:04:12 83° 103° (ESE) 11:08:47 145.935
